Home   Weather   Clarington   Past weeks

Flag for Canada Past Weather in Clarington, Ontario, Canada — Yesterday and Last 2 Weeks

Now
34 °F

Fog.


Feels Like: 29 °F
Forecast: 33 / 37 °F
Wind: 6 mph from Southwest

Location: Peterborough Airport

Current Time: Jan 18, 2017 at 11:39:18 pm

Latest Report: Jan 18, 2017 at 11:00 pm


Visibility: 4 mi

Pressure: 29.97 "Hg

Humidity: 100%

Dew Point: 34 °F

Location of ClaringtonLocation

Past Weather in Clarington — Graph

°F

Clarington Temperature Yesterday

Maximum temperature yesterday: 32 °F (at 1:07 pm)
Minimum temperature yesterday: 18 °F (at 12:00 am)
Average temperature yesterday: 29 °F

High & Low Weather Summary for the Past Weeks

 TemperatureHumidityPressure
High43 °F (Jan 11, 1:05 am)100% (Jan 3, 10:00 pm)30.81 "Hg (Jan 3, 10:00 pm)
Low-6 °F (Jan 7, 8:00 am)45% (Jan 6, 2:00 pm)29.36 "Hg (Jan 4, 5:10 am)
Average24 °F84%30.06 "Hg
* Reported Jan 3 10:00 pm — Jan 18 10:34 pm, Clarington, Weather by CustomWeather, © 2017

Note: Actual official high and low records may vary slightly from our data, if they occured in-between our weather recording intervals... More about our weather records

Advertising

Clarington Weather History for the Previous 24 Hours

Scroll right to see more
 ConditionsComfort  
Time TempWeatherWind HumidityBarometerVisibility
10:34 pm
Wed, Jan 18
34 °FFog.3 mph100%29.97 "Hg5 mi
10:10 pm34 °FFog.3 mph100%29.98 "Hg6 mi
9:00 pm34 °FOvercast.3 mph100%29.98 "Hg9 mi
8:30 pm34 °FFog.5 mph100%29.98 "Hg6 mi
8:02 pm34 °FFog.6 mph100%29.98 "Hg5 mi
7:00 pm34 °FFog.2 mph100%30.00 "Hg6 mi
6:24 pm34 °FMostly cloudy.2 mph100%29.99 "Hg9 mi
6:09 pm34 °FFog.5 mph100%29.98 "Hg5 mi
5:08 pm34 °FOvercast.5 mph100%30.00 "Hg9 mi
4:47 pm34 °FFog.5 mph100%30.00 "Hg6 mi
4:24 pm34 °FFog.5 mph100%30.00 "Hg3 mi
4:00 pm34 °FFog.6 mph100%30.00 "Hg2 mi
3:35 pm34 °FFog.7 mph100%30.00 "Hg6 mi
3:12 pm34 °FFog.5 mph100%29.99 "Hg5 mi
3:00 pm34 °FLow clouds.7 mph100%29.98 "Hg9 mi
2:00 pm34 °FLow clouds.6 mph93%29.95 "Hg9 mi
1:00 pm34 °FLow clouds.6 mph93%29.95 "Hg9 mi
12:00 pm34 °FLow clouds.8 mph93%29.95 "Hg9 mi
11:00 am32 °FLow clouds.2 mph100%29.95 "Hg9 mi
10:00 am32 °FLow clouds.3 mph100%29.96 "Hg7 mi
9:33 am32 °FIce fog.3 mph100%29.95 "Hg6 mi
9:00 am32 °FIce fog.2 mph100%29.93 "Hg6 mi
8:54 am32 °FIce fog.3 mph100%29.93 "Hg6 mi
8:27 am32 °FIce fog.3 mph100%29.92 "Hg6 mi
8:00 am32 °FIce fog.3 mph100%29.91 "Hg3 mi
7:17 am30 °FIce fog.No wind100%29.89 "Hg3 mi
7:05 am30 °FIce fog.No wind100%29.89 "Hg3 mi
6:59 am30 °FIce fog.No wind100%29.90 "Hg2 mi
6:39 am30 °FIce fog.2 mph100%29.89 "Hg2 mi
6:12 am30 °FIce fog.2 mph100%29.89 "Hg2 mi
6:00 am30 °FIce fog.2 mph100%29.89 "Hg5 mi
5:29 am32 °FIce fog.2 mph100%29.88 "Hg5 mi
5:02 am32 °FLight freezing rain. Ice fog.3 mph100%29.88 "Hg3 mi
4:43 am32 °FLight freezing rain. Ice fog.2 mph100%29.87 "Hg2 mi
4:36 am32 °FIce fog.2 mph100%29.87 "Hg3 mi
4:04 am30 °FLight freezing rain. Ice fog.No wind100%29.86 "Hg2 mi
3:23 am30 °FLight freezing rain. Ice fog.3 mph100%29.85 "Hg2 mi
3:10 am30 °FLight freezing rain. Ice fog.3 mph100%29.85 "Hg2 mi
2:29 am30 °FIce fog.5 mph100%29.85 "Hg3 mi
2:20 am32 °FIce fog.6 mph100%29.85 "Hg2 mi
1:49 am32 °FIce fog.6 mph100%29.83 "Hg3 mi
1:35 am32 °FLight freezing rain. Ice fog.6 mph100%29.83 "Hg2 mi
1:05 am32 °FLight freezing rain. Ice fog.5 mph100%29.83 "Hg2 mi
12:43 am32 °FLight freezing rain. Ice fog.5 mph100%29.82 "Hg3 mi
12:20 am32 °FLight freezing rain. Ice fog.6 mph100%29.83 "Hg6 mi
12:00 am32 °FLight freezing rain. Ice fog.6 mph100%29.82 "Hg6 mi
11:25 pm
Tue, Jan 17
32 °FLight freezing rain. Ice fog.6 mph100%29.82 "Hg3 mi
11:00 pm32 °FLight freezing rain. Ice fog.6 mph100%29.83 "Hg3 mi
Weather by CustomWeather, © 2017

See weather overviewHow to use our weather pages